Terminal Aerodrome Forecast
Issued by NWS

Home | Current Version | Previous Version | Graphics & Text | Print | Product List | Glossary On
Versions: 1 2 3 4 5 6 7 8 9 10 11 12 13 14 15 16
000
FTUS43 KBIS 281700
TAFMOT
TAF
KMOT 281734Z 2818/0118 29014KT P6SM SCT060
     FM281900 28014KT P6SM VCSH OVC025
     FM010000 26007KT P6SM OVC050
     FM010900 27006KT 4SM -SN OVC020=

USA.gov is the U.S. government's official web portal to all federal, state and local government web resources and services.